Du Bois, PA

1:14 AM EST on November 25, 2017 (GMT -0500)
Du Bois-Jefferson County

Weather History for KDUJ - January, 2014

Change the Weather History Date:

Friday, January 10, 2014

  Actual Average Record
Temperature  
Mean Temperature 32 °F 24 °F  
Max Temperature 37 °F 31 °F 47 °F (1963)
Min Temperature 27 °F 17 °F -10 °F (1982)
Degree Days  
Heating Degree Days 33 41  
Month to date heating degree days 480 410  
Since 1 July heating degree days 2967 3072  
Cooling Degree Days 0 0  
Month to date cooling degree days 0 0  
Year to date cooling degree days 0 0  
Moisture  
Dew Point 29 °F    
Average Humidity 81    
Maximum Humidity 92    
Minimum Humidity 69    
Precipitation  
Precipitation 0.06 in 0.10 in 0.75 in (2016)
Month to date precipitation 0.47 1.05  
Sea Level Pressure  
Sea Level Pressure 30.21 in    
Wind  
Wind Speed 7 mph (SE)    
Max Wind Speed 16 mph    
Max Gust Speed 24 mph    
Visibility 4 miles    
Events Fog , Snow    
T = Trace of Precipitation, MM = Missing Value Source: NWS Daily Summary

Daily Weather History Graph

Daily Weather History Graph

Search for Another Location

Airport or City:

Trip Planner

Search our weather history database for the weather conditions in past years. The results will help you decide how hot, cold, wet, or windy it might be!

Date:

Astronomy

Jan. 10, 2014 Rise Set
Actual Time 7:40 AM EST 5:06 PM EST
Civil Twilight 7:09 AM EST 5:36 PM EST
Nautical Twilight 6:35 AM EST 6:11 PM EST
Astronomical Twilight 6:02 AM EST 6:44 PM EST
Moon 1:09 PM EST (1/10) 2:45 AM EST (1/10)
Length of Visible Light 10h 27m
Length of Day
9h 25m
Waxing Gibbous, 75% of the Moon is Illuminated
Jan 10
Waxing Gibbous
Jan 15
Full
Jan 24
Last Quarter
Jan 30
New
Feb 6
First Quarter

Hourly Weather History & Observations

Time (EST) Temp. Windchill Dew Point Humidity Pressure Visibility Wind Dir Wind Speed Gust Speed Precip Events Conditions
12:16 AM 28.4 °F 20.4 °F 19.4 °F 69% 30.33 in 1.8 mi SE 8.1 mph - 0.00 in Snow Light Snow
12:26 AM 26.6 °F 18.2 °F 21.2 °F 80% 30.32 in 1.2 mi SE 8.1 mph - 0.00 in Snow Light Snow
12:33 AM 28.4 °F 22.2 °F 21.2 °F 74% 30.32 in 3.0 mi SSE 5.8 mph - 0.00 in Snow Light Snow
12:56 AM 28.0 °F 20.0 °F 21.0 °F 75% 30.38 in 1.8 mi ESE 8.1 mph - 0.00 in Snow Light Snow
1:31 AM 26.6 °F 20.0 °F 21.2 °F 80% 30.29 in 0.8 mi ESE 5.8 mph - 0.01 in Snow Light Snow
1:45 AM 26.6 °F 19.1 °F 23.0 °F 86% 30.29 in 0.5 mi SE 6.9 mph - 0.04 in Fog , Snow Light Snow
1:56 AM 27.0 °F 18.7 °F 23.0 °F 85% 30.36 in 0.8 mi SE 8.1 mph - 0.05 in Snow Light Snow
2:09 AM 26.6 °F 18.2 °F 24.8 °F 93% 30.28 in 2.0 mi SE 8.1 mph - 0.00 in Snow Light Snow
2:20 AM 26.6 °F 17.5 °F 24.8 °F 93% 30.29 in 3.0 mi SE 9.2 mph - 0.00 in   Overcast
2:56 AM 28.0 °F 20.0 °F 24.1 °F 85% 30.36 in 4.0 mi SE 8.1 mph - 0.00 in   Overcast
3:09 AM 28.4 °F 19.7 °F 24.8 °F 86% 30.29 in 2.5 mi SE 9.2 mph - N/A   Overcast
3:56 AM 28.0 °F 20.0 °F 24.1 °F 85% 30.33 in 4.0 mi SE 8.1 mph - N/A   Overcast
4:20 AM 28.4 °F 20.4 °F 24.8 °F 86% 30.26 in 2.5 mi SE 8.1 mph - 0.00 in Snow Light Snow
4:42 AM 28.4 °F 20.4 °F 24.8 °F 86% 30.25 in 4.0 mi ESE 8.1 mph - 0.00 in   Overcast
4:56 AM 28.0 °F 20.0 °F 25.0 °F 88% 30.32 in 5.0 mi SE 8.1 mph - 0.00 in   Overcast
5:05 AM 28.4 °F 22.2 °F 24.8 °F 86% 30.25 in 1.8 mi ESE 5.8 mph - 0.00 in Snow Light Snow
5:14 AM 28.4 °F 19.7 °F 24.8 °F 86% 30.25 in 3.0 mi SE 9.2 mph - 0.00 in Snow Light Snow
5:56 AM 28.9 °F 25.2 °F 25.0 °F 85% 30.31 in 2.0 mi Variable 3.5 mph - 0.00 in Snow Light Snow
6:09 AM 28.4 °F 24.6 °F 24.8 °F 86% 30.25 in 3.0 mi SSE 3.5 mph - 0.01 in Snow Light Snow
6:32 AM 28.4 °F 22.2 °F 24.8 °F 86% 30.25 in 7.0 mi SE 5.8 mph - 0.01 in   Overcast
6:56 AM 28.9 °F - 25.0 °F 85% 30.32 in 5.0 mi Calm Calm - 0.01 in   Overcast
7:10 AM 30.2 °F - 26.6 °F 86% 30.25 in 4.0 mi Calm Calm - N/A   Overcast
7:56 AM 30.0 °F 25.2 °F 25.0 °F 82% 30.32 in 3.0 mi ESE 4.6 mph - 0.00 in Snow Light Snow
8:56 AM 30.0 °F 26.5 °F 25.0 °F 82% 30.33 in 9.0 mi ESE 3.5 mph - 0.00 in   Overcast
9:56 AM 32.0 °F 27.5 °F 25.0 °F 75% 30.32 in 10.0 mi SSE 4.6 mph - N/A   Overcast
10:17 AM 32.0 °F 28.7 °F 26.6 °F 80% 30.27 in 10.0 mi SSE 3.5 mph - N/A   Overcast
10:36 AM 33.8 °F 30.8 °F 26.6 °F 75% 30.26 in 10.0 mi SE 3.5 mph - N/A   Overcast
10:56 AM 33.1 °F 28.7 °F 27.0 °F 78% 30.31 in 10.0 mi SSE 4.6 mph - N/A   Overcast
11:56 AM 34.0 °F 28.8 °F 30.0 °F 85% 30.28 in 6.0 mi South 5.8 mph - N/A   Overcast
12:38 PM 35.6 °F 31.7 °F 30.2 °F 81% 30.20 in 3.0 mi SSE 4.6 mph - N/A   Overcast
12:56 PM 35.1 °F 31.0 °F 32.0 °F 89% 30.25 in 3.0 mi Variable 4.6 mph - N/A   Overcast
1:08 PM 35.6 °F 32.8 °F 32.0 °F 87% 30.18 in 2.5 mi SSE 3.5 mph - N/A   Overcast
1:24 PM 35.6 °F 32.8 °F 32.0 °F 87% 30.18 in 1.5 mi SE 3.5 mph - N/A   Overcast
1:56 PM 35.1 °F 30.1 °F 32.0 °F 89% 30.23 in 1.5 mi ESE 5.8 mph - N/A   Overcast
2:40 PM 35.6 °F 31.7 °F 33.8 °F 93% 30.17 in 2.5 mi ESE 4.6 mph - N/A   Overcast
2:49 PM 35.6 °F 32.8 °F 33.8 °F 93% 30.17 in 3.0 mi SE 3.5 mph - N/A   Overcast
2:56 PM 36.0 °F 31.1 °F 33.1 °F 89% 30.22 in 4.0 mi ESE 5.8 mph - N/A   Overcast
3:56 PM 36.0 °F 30.3 °F 33.1 °F 89% 30.19 in 3.0 mi ESE 6.9 mph - N/A   Overcast
4:05 PM 35.6 °F 29.2 °F 33.8 °F 93% 30.14 in 2.0 mi SE 8.1 mph - N/A   Overcast
4:13 PM 35.6 °F 29.2 °F 33.8 °F 93% 30.14 in 1.5 mi SE 8.1 mph - N/A   Overcast
4:45 PM 37.4 °F 32.1 °F 33.8 °F 87% 30.13 in 0.8 mi ESE 6.9 mph - N/A   Overcast
4:56 PM 37.0 °F 32.4 °F 34.0 °F 89% 30.18 in 0.5 mi ESE 5.8 mph - N/A Fog Fog
5:30 PM 35.6 °F 29.2 °F 33.8 °F 93% 30.12 in 1.0 mi ESE 8.1 mph - N/A   Overcast
5:56 PM 37.0 °F 30.4 °F 34.0 °F 89% 30.17 in 1.8 mi ESE 9.2 mph - N/A   Overcast
6:04 PM 37.4 °F 30.3 °F 33.8 °F 87% 30.11 in 2.5 mi ESE 10.4 mph - N/A   Mostly Cloudy
6:33 PM 37.4 °F 30.8 °F 35.6 °F 93% 30.10 in 1.5 mi SE 9.2 mph - N/A   Overcast
6:56 PM 37.0 °F 30.4 °F 35.1 °F 93% 30.16 in 2.5 mi SE 9.2 mph - N/A   Overcast
7:05 PM 37.4 °F 30.8 °F 33.8 °F 87% 30.10 in 4.0 mi SE 9.2 mph - N/A   Overcast
7:15 PM 37.4 °F 31.4 °F 33.8 °F 87% 30.11 in 6.0 mi SE 8.1 mph - N/A   Overcast
7:56 PM 37.0 °F 29.3 °F 34.0 °F 89% 30.13 in 7.0 mi ESE 11.5 mph - N/A   Overcast
8:03 PM 37.4 °F 29.3 °F 33.8 °F 87% 30.07 in 6.0 mi ESE 12.7 mph - N/A   Overcast
8:24 PM 37.4 °F 29.3 °F 33.8 °F 87% 30.06 in 7.0 mi ESE 12.7 mph - N/A   Overcast
8:56 PM 37.0 °F 29.8 °F 33.1 °F 86% 30.09 in 7.0 mi ESE 10.4 mph - N/A   Clear
9:25 PM 37.4 °F 28.9 °F 33.8 °F 87% 30.02 in 7.0 mi ESE 13.8 mph 20.7 mph N/A   Mostly Cloudy
9:56 PM 36.0 °F 27.5 °F 33.1 °F 89% 30.06 in 7.0 mi ESE 12.7 mph - N/A   Overcast
10:56 PM 36.0 °F 26.7 °F 33.1 °F 89% 30.01 in 4.0 mi ESE 15.0 mph 24.2 mph N/A   Overcast
11:12 PM 35.6 °F 26.6 °F 33.8 °F 93% 29.96 in 3.0 mi SE 13.8 mph 21.9 mph N/A   Overcast
11:56 PM 37.0 °F 29.3 °F 34.0 °F 89% 29.98 in 3.0 mi ESE 11.5 mph - N/A   Overcast